Regional Weather Roundup
Issued by NWS

Home | Current Version | Previous Version | Graphics & Text | Print | Product List | Glossary Off
Versions: 1 2 3 4 5 6 7 8 9 10 11 12 13 14 15 16 17 18 19 20 21 22 23 24 25 26 27 28 29 30 31 32 33 34 35 36 37 38 39 40 41 42 43 44 45 46 47 48 49 50

000
ASUS43 KMKX 181111
RWRWI

WISCONSIN REGIONAL WEATHER ROUNDUP
NATIONAL WEATHER SERVICE MILWAUKEE/SULLIVAN WI
600 AM CDT FRI APR 18 2014

NOTE: "FAIR" INDICATES FEW OR NO CLOUDS BELOW 12,000 FEET WITH NO
SIGNIFICANT WEATHER AND/OR OBSTRUCTIONS TO VISIBILITY.

WIZ001-002-006>008-014>016-023>028-181200-
NORTHWEST WISCONSIN

CITY           SKY/WX    TMP DP  RH WIND       PRES   REMARKS
SUPERIOR ARPT  CLOUDY    21  20  96 CALM      30.36S
ASHLAND        PTCLDY    21  20  96 W5        30.36R WCI  15
HAYWARD        FOG       16  12  84 NE3       30.34R VSB 1/4
SIREN          MOCLDY    18  16  93 CALM      30.35R
RICE LAKE      CLOUDY    20  18  94 CALM      30.36R
LADYSMITH      CLEAR     18  17  94 CALM      30.34S
EAU CLAIRE     CLEAR     23  20  88 CALM      30.35R
MENOMONIE      SUNNY     25  24  95 CALM      30.35S FOG
NEW RICHMOND   CLOUDY    26  26 100 CALM      30.35R
OSCEOLA        MOCLDY    20  20 100 CALM      30.37R
$$

WIZ003>005-009-010-017-018-181200-
NORTH CENTRAL WISCONSIN

CITY           SKY/WX    TMP DP  RH WIND       PRES   REMARKS
WOODRUFF       FOG       19  16  86 CALM      30.30R VSB 1/2
RHINELANDER    CLEAR     17  16  95 NW3       30.30R
EAGLE RIVER    FOG       19  18  98 CALM      30.29R VSB<1/4
LAND O LAKES   MOCLDY    19  18  94 W3        30.29S
PHILLIPS       CLEAR    N/A N/A N/A CALM      30.31R FOG
TOMAHAWK       CLEAR     21  19  93 CALM      30.31R
MEDFORD        CLEAR     24  23  96 CALM      30.31R
MERRILL        CLEAR     23  22  96 CALM      30.32R
$$

WIZ029-030-035-036-043>047-181200-
CENTRAL WISCONSIN

CITY           SKY/WX    TMP DP  RH WIND       PRES   REMARKS
WAUSAU         CLEAR     28  24  85 NW3       30.31R
MOSINEE        CLEAR     37  25  60 NW5       30.32R WCI  34
MARSHFIELD     CLEAR     29  25  85 CALM      30.32R
STEVENS POINT  CLEAR     25  23  91 CALM      30.33R
WAUPACA        CLEAR     34  25  69 CALM      30.34R
WAUTOMA        PTCLDY    33  26  76 N3        30.34R
WISC RAPIDS    CLEAR     27  23  85 CALM      30.34R
CAMP DOUGLAS   CLEAR     24  24  99 NW3       30.34R
$$

WIZ011>013-019>022-031-037>040-048>050-181200-
NORTHEAST WISCONSIN

CITY           SKY/WX    TMP DP  RH WIND       PRES   REMARKS
ANTIGO         CLEAR     25  22  90 CALM      30.30R
STURGEON BAY   CLOUDY    34  27  75 NW5       30.33R WCI  30
GREEN BAY      CLOUDY    35  28  75 N5        30.33R WCI  31
MANITOWOC      CLOUDY    36  31  82 N8        30.33R WCI  30
APPLETON       MOCLDY    34  27  75 NW7       30.32R WCI  28
CLINTONVILLE   CLOUDY    34  27  75 CALM      30.32R
OSHKOSH        CLOUDY    35  28  75 N6        30.32R WCI  30
$$

WIZ032>034-041-042-053>061-181200-
SOUTHWEST WISCONSIN

CITY           SKY/WX    TMP DP  RH WIND       PRES   REMARKS
LA CROSSE      CLEAR     29  25  85 N3        30.36R
SPARTA         CLEAR     21  20  96 CALM      30.36R
VIROQUA        FAIR      29  27  91 N3        30.32S
BOSCOBEL       MOCLDY    26  23  88 CALM      30.36R FOG
PRAIRIE DU CHI CLEAR     28  26  91 CALM      30.35R FOG
PLATTEVILLE    FAIR      29  27  90 N3        30.33R
$$

WIZ056-057-062-063-064-067-068-181200-
SOUTH CENTRAL WISCONSIN

CITY           SKY/WX    TMP DP  RH WIND       PRES   REMARKS
BARABOO/DELLS  CLOUDY    30  29  94 CALM      30.33R
LONE ROCK      CLEAR     29  27  92 W5        30.34R WCI  24
WATERTOWN      CLOUDY    33  31  91 N5        30.31R WCI  29
MADISON        PTCLDY    28  27  96 N5        30.32S WCI  23
MIDDLETON      FAIR      29  29  97 CALM      30.33R
MONROE         CLEAR    N/A N/A N/A N7        30.30R
JANESVILLE     CLEAR     36  30  80 MISG      30.30R
$$

WIZ051-052-058>065-066-070>072-181200-
SOUTHEAST WISCONSIN

CITY           SKY/WX    TMP DP  RH WIND       PRES   REMARKS
MILWAUKEE      PTCLDY    37  31  78 N6        30.31R WCI  32
WAUKESHA       MOCLDY    34  30  86 N3        30.31R
MILWAUKEE/TIMM MOCLDY    34  30  86 N6        30.31S WCI  29
RACINE         CLEAR     37  32  82 N9        30.31R WCI  30
BURLINGTON     CLEAR     32  31  94 N5        30.30R WCI  28
KENOSHA        CLEAR     36  32  85 N7        30.28S WCI  30
FOND DU LAC    CLOUDY    30  28  92 CALM      30.33R
SHEBOYGAN      CLOUDY    36  30  79 N9        30.32R WCI  29
WEST BEND      CLOUDY    34  30  86 NW5       30.31R WCI  30
JUNEAU         PTCLDY    31  28  88 NW5       30.33R WCI  27
$$

LSZ147-162-181200-
LAKE SUPERIOR

STATION/POSITION TIME  TEMP    WIND        PRES    WAVE
                       AIR SEA DIR/SP/G            HT/PER
                 (UTC) (F)     (DEG/KT/KT) (MB)    (FT/S)
DEVILS ISLAND    1100   31     330/ 11/ 12 1028.9R
PORT WING        1000   24     160/  2/  4 1027.8R
SAXON HARBOR     1000          200/  3/  4 1027.1R
$$

LMZ867-665-643>646-181200-
LAKE MICHIGAN

STATION/POSITION TIME  TEMP    WIND        PRES    WAVE
                       AIR SEA DIR/SP/G            HT/PER
                 (UTC) (F)     (DEG/KT/KT) (MB)    (FT/S)
NORTHPORT PIER   1000   33     310/  6/  9 1026.1R
SISTER BAY       1023   32     360/  7/  8   N/A
KEWAUNEE LAKESHO 1000   36     340/  5/  8 1026.6R
SHEBOYGAN LAKESH 1100   39     340/ 10/ 12 1027.3R
PORT WASHINGTON  1000   37     310/  5/  8 1026.4R
MILWAUKEE LAKESH 1000   39     340/  7/ 10   N/A
KENOSHA   LAKESH 1100   39     360/  9/ 11   N/A
$$

TC  - TEMPERATURE IN CELSIUS
VSB - VISIBILITY IN STATUTE MILES
WCI - WIND CHILL INDEX
HX  - HEAT INDEX




USA.gov is the U.S. government's official web portal to all federal, state and local government web resources and services.